When you browse on this site, cookies collect data to enhance your experience and personalize the content and advertising you see.
Visit our Privacy Policy to learn more. By continuing to use the site, you agree to this use of cookies and data.
  • In Hungary
  • List of Countries
  • For 7 days
  • Water Temperature
  • Weather Map
  • News
  • Weather Widgets
  • user-avatar
    Login

    Hourly Weather Energetik

    Today, 23 February, Sunday

    Time Temperature Precipitation Wind Pressure Humidity
    00:00 +2°C° 0 mm 1 mps 716 mmHg 90%
    01:00 +2°C° 0 mm 1 mps 716 mmHg 90%
    02:00 +2°C° 0 mm 1 mps 716 mmHg 90%
    03:00 +2°C° 0 mm 1 mps 716 mmHg 89%
    04:00 +2°C° 0 mm 1 mps 716 mmHg 89%
    05:00 +2°C° 0 mm 1 mps 716 mmHg 89%
    06:00 +2°C° 0 mm 1 mps 716 mmHg 89%
    07:00 +3°C° 0 mm 1 mps 717 mmHg 87%
    08:00 +3°C° 0 mm 0 mps 717 mmHg 85%
    09:00 +3°C° 0 mm 0 mps 717 mmHg 82%
    10:00 +5°C° 0 mm 1 mps 717 mmHg 81%
    11:00 +5°C° 0 mm 1 mps 717 mmHg 80%
    12:00 +6°C° 0 mm 1 mps 716 mmHg 78%
    13:00 +6°C° 0 mm 1 mps 716 mmHg 77%
    14:00 +6°C° 0 mm 2 mps 716 mmHg 76%
    15:00 +6°C° 0 mm 2 mps 716 mmHg 75%
    16:00 +6°C° 0 mm 2 mps 716 mmHg 79%
    17:00 +6°C° 0 mm 1 mps 716 mmHg 83%
    18:00 +5°C° 0 mm 1 mps 716 mmHg 87%
    19:00 +5°C° 0 mm 1 mps 716 mmHg 88%
    20:00 +5°C° 0 mm 1 mps 716 mmHg 90%
    21:00 +4°C° 0 mm 0 mps 716 mmHg 91%
    22:00 +5°C° 0 mm 1 mps 716 mmHg 92%
    23:00 +4°C° 0 mm 1 mps 715 mmHg 92%

    Tomorrow, 24 February, Monday

    Time Temperature Precipitation Wind Pressure Humidity
    00:00 +4°C° 0 mm 1 mps 715 mmHg 92%
    01:00 +4°C° 0 mm 1 mps 715 mmHg 92%
    02:00 +4°C° 0 mm 1 mps 714 mmHg 92%
    03:00 +4°C° 0 mm 1 mps 714 mmHg 92%
    04:00 +4°C° 0 mm 1 mps 714 mmHg 92%
    05:00 +3°C° 0 mm 2 mps 713 mmHg 93%
    06:00 +3°C° 0 mm 2 mps 713 mmHg 93%
    07:00 +2°C° 0 mm 3 mps 712 mmHg 89%
    08:00 +2°C° 0 mm 3 mps 712 mmHg 85%
    09:00 +3°C° 0 mm 4 mps 711 mmHg 81%
    10:00 +4°C° 0 mm 4 mps 710 mmHg 75%
    11:00 +5°C° 0 mm 4 mps 709 mmHg 69%
    12:00 +6°C° 0 mm 4 mps 708 mmHg 62%
    13:00 +6°C° 0 mm 4 mps 707 mmHg 63%
    14:00 +6°C° 0 mm 4 mps 707 mmHg 64%
    15:00 +8°C° 0 mm 3 mps 706 mmHg 65%
    16:00 +7°C° 0 mm 3 mps 705 mmHg 67%
    17:00 +5°C° 0 mm 3 mps 705 mmHg 69%
    18:00 +5°C° 0 mm 3 mps 704 mmHg 72%
    19:00 +6°C° 0 mm 2 mps 704 mmHg 71%
    20:00 +5°C° 0 mm 2 mps 703 mmHg 71%
    21:00 +6°C° 0 mm 1 mps 703 mmHg 71%
    22:00 +5°C° 0 mm 2 mps 703 mmHg 71%
    23:00 +5°C° 0 mm 2 mps 703 mmHg 71%

    Day after tomorrow, 25 February, Tuesday

    Time Temperature Precipitation Wind Pressure Humidity
    00:00 +4°C° 0 mm 3 mps 703 mmHg 71%
    01:00 +1°C° 0.3 mm 5 mps 704 mmHg 74%
    02:00 -1°C° 0.3 mm 7 mps 705 mmHg 78%
    03:00 -3°C° 0.3 mm 10 mps 706 mmHg 82%
    04:00 -2°C° 0.2 mm 11 mps 706 mmHg 76%
    05:00 -2°C° 0.2 mm 11 mps 707 mmHg 71%
    06:00 -2°C° 0.2 mm 12 mps 708 mmHg 66%
    07:00 -1°C° 0 mm 11 mps 709 mmHg 65%
    08:00 0°C° 0 mm 10 mps 709 mmHg 64%
    09:00 0°C° 0 mm 10 mps 710 mmHg 63%
    10:00 0°C° 0 mm 10 mps 711 mmHg 60%
    11:00 +1°C° 0 mm 11 mps 711 mmHg 58%
    12:00 +2°C° 0 mm 11 mps 711 mmHg 55%
    13:00 +2°C° 0 mm 12 mps 711 mmHg 50%
    14:00 +2°C° 0 mm 12 mps 712 mmHg 45%
    15:00 +3°C° 0 mm 12 mps 712 mmHg 41%
    16:00 +2°C° 0 mm 10 mps 713 mmHg 43%
    17:00 +1°C° 0 mm 8 mps 714 mmHg 46%
    18:00 +1°C° 0 mm 6 mps 714 mmHg 48%
    19:00 0°C° 0 mm 5 mps 715 mmHg 52%
    20:00 0°C° 0 mm 4 mps 715 mmHg 56%
    21:00 0°C° 0 mm 3 mps 716 mmHg 60%
    22:00 +1°C° 0 mm 2 mps 716 mmHg 61%
    23:00 +1°C° 0 mm 2 mps 716 mmHg 63%

    26 February, Wednesday

    Time Temperature Precipitation Wind Pressure Humidity
    00:00 +2°C° 0 mm 1 mps 716 mmHg 64%
    01:00 +2°C° 0 mm 1 mps 716 mmHg 63%
    02:00 +1°C° 0 mm 1 mps 716 mmHg 62%
    03:00 +1°C° 0 mm 1 mps 715 mmHg 61%
    04:00 +1°C° 0 mm 1 mps 715 mmHg 59%
    05:00 -1°C° 0 mm 2 mps 715 mmHg 58%
    06:00 -1°C° 0 mm 2 mps 715 mmHg 56%
    07:00 +2°C° 0 mm 2 mps 714 mmHg 49%
    08:00 +3°C° 0 mm 2 mps 714 mmHg 42%
    09:00 +4°C° 0 mm 2 mps 714 mmHg 35%
    10:00 +5°C° 0 mm 3 mps 713 mmHg 33%
    11:00 +6°C° 0 mm 4 mps 713 mmHg 30%
    12:00 +7°C° 0 mm 4 mps 713 mmHg 28%
    13:00 +8°C° 0 mm 4 mps 712 mmHg 28%
    14:00 +8°C° 0 mm 4 mps 712 mmHg 27%
    15:00 +9°C° 0 mm 5 mps 712 mmHg 27%
    16:00 +8°C° 0 mm 4 mps 711 mmHg 30%
    17:00 +6°C° 0 mm 4 mps 711 mmHg 34%
    18:00 +5°C° 0 mm 3 mps 711 mmHg 38%
    19:00 +4°C° 0 mm 3 mps 711 mmHg 40%
    20:00 +4°C° 0 mm 3 mps 711 mmHg 43%
    21:00 +5°C° 0 mm 2 mps 711 mmHg 46%
    22:00 +5°C° 0 mm 2 mps 711 mmHg 46%
    23:00 +5°C° 0 mm 2 mps 711 mmHg 46%

    27 February, Thursday

    Time Temperature Precipitation Wind Pressure Humidity
    00:00 +5°C° 0 mm 2 mps 710 mmHg 46%
    01:00 +5°C° 0 mm 2 mps 710 mmHg 45%
    02:00 +5°C° 0 mm 2 mps 710 mmHg 44%
    03:00 +6°C° 0 mm 1 mps 710 mmHg 43%
    04:00 +6°C° 0 mm 1 mps 710 mmHg 43%
    05:00 +5°C° 0 mm 1 mps 710 mmHg 42%
    06:00 +5°C° 0 mm 1 mps 709 mmHg 42%
    07:00 +7°C° 0 mm 1 mps 709 mmHg 40%
    08:00 +8°C° 0 mm 1 mps 709 mmHg 39%
    09:00 +8°C° 0 mm 2 mps 709 mmHg 38%
    10:00 +12°C° 0 mm 2 mps 709 mmHg 34%
    11:00 +14°C° 0 mm 2 mps 709 mmHg 31%
    12:00 +16°C° 0 mm 2 mps 709 mmHg 27%
    13:00 +17°C° 0 mm 2 mps 709 mmHg 27%
    14:00 +17°C° 0 mm 2 mps 709 mmHg 26%
    15:00 +18°C° 0 mm 2 mps 709 mmHg 26%
    16:00 +16°C° 0 mm 2 mps 709 mmHg 31%
    17:00 +14°C° 0 mm 1 mps 708 mmHg 37%
    18:00 +13°C° 0 mm 1 mps 708 mmHg 43%
    19:00 +12°C° 0 mm 1 mps 708 mmHg 45%
    20:00 +11°C° 0 mm 1 mps 708 mmHg 47%
    21:00 +11°C° 0 mm 1 mps 709 mmHg 50%
    22:00 +10°C° 0 mm 1 mps 708 mmHg 50%
    23:00 +10°C° 0 mm 1 mps 708 mmHg 50%

    28 February, Friday

    Time Temperature Precipitation Wind Pressure Humidity
    00:00 +9°C° 0 mm 0 mps 708 mmHg 49%
    01:00 +9°C° 0 mm 1 mps 708 mmHg 50%
    02:00 +9°C° 0 mm 1 mps 707 mmHg 51%
    03:00 +8°C° 0 mm 1 mps 707 mmHg 52%
    04:00 +8°C° 0 mm 1 mps 707 mmHg 53%
    05:00 +8°C° 0 mm 1 mps 707 mmHg 53%
    06:00 +8°C° 0 mm 1 mps 707 mmHg 54%
    07:00 +8°C° 0 mm 1 mps 706 mmHg 52%
    08:00 +9°C° 0 mm 1 mps 706 mmHg 50%
    09:00 +10°C° 0 mm 1 mps 706 mmHg 49%
    10:00 +12°C° 0 mm 2 mps 706 mmHg 43%
    11:00 +14°C° 0 mm 2 mps 706 mmHg 37%
    12:00 +16°C° 0 mm 3 mps 706 mmHg 32%
    13:00 +16°C° 0 mm 3 mps 705 mmHg 33%
    14:00 +16°C° 0 mm 3 mps 705 mmHg 33%
    15:00 +15°C° 0 mm 4 mps 705 mmHg 34%
    16:00 +13°C° 0 mm 3 mps 705 mmHg 38%
    17:00 +13°C° 0 mm 2 mps 705 mmHg 43%
    18:00 +12°C° 0 mm 1 mps 705 mmHg 47%
    19:00 +11°C° 0 mm 1 mps 705 mmHg 50%
    20:00 +10°C° 0 mm 1 mps 705 mmHg 53%
    21:00 +8°C° 0 mm 0 mps 706 mmHg 56%
    22:00 +9°C° 0 mm 1 mps 706 mmHg 55%
    23:00 +9°C° 0 mm 1 mps 706 mmHg 54%
    Show more